Weather History for Belen, NM

Change the Weather History Date:

Wednesday, February 19, 2014

  Actual Average (KABQ) Record (KABQ)
Temperature  
Mean Temperature 55 °F 42 °F  
Max Temperature 70 °F 54 °F 72 °F (1981)
Min Temperature 40 °F 31 °F 12 °F (1910)
Degree Days  
Heating Degree Days 10 23  
Month to date heating degree days 469  
Since 1 July heating degree days 3111  
Cooling Degree Days 0 0  
Month to date cooling degree days 0  
Year to date cooling degree days 0  
Growing Degree Days 5 (Base 50)    
Moisture  
Dew Point 16 °F    
Average Humidity 21    
Maximum Humidity 36    
Minimum Humidity 13    
Precipitation  
Precipitation 0.00 in 0.02 in 0.36 in (1915)
Month to date precipitation 0.32  
Year to date precipitation 0.70  
Snow  
Snow 0.00 in - - ()
Month to date snowfall  
Since 1 July snowfall  
Snow Depth -    
Sea Level Pressure  
Sea Level Pressure 29.85 in    
Wind  
Wind Speed 12 mph (WSW)    
Max Wind Speed 36 mph    
Max Gust Speed 48 mph    
Visibility 10 miles    
Events      
T = Trace of Precipitation, MM = Missing Value Source: NWS Daily Summary

Daily Weather History Graph

Daily Weather History Graph

Search for Another Location

Airport:

Trip Planner

Search our weather history database for the weather conditions in past years. The results will help you decide how hot, cold, wet, or windy it might be!

Date:

Astronomy

Feb. 19, 2014 Rise Set
Actual Time 6:48 AM MST 5:54 PM MST
Civil Twilight 6:22 AM MST 6:19 PM MST
Nautical Twilight 5:53 AM MST 6:49 PM MST
Astronomical Twilight 5:24 AM MST 7:18 PM MST
Moon 10:36 PM MST (2/19) 9:08 AM MST (2/19)
Length of Visible Light 11h 57m
Length of Day
11h 05m
Waning Gibbous, 79% of the Moon is Illuminated
Feb 19
Waning Gibbous
Feb 22
Last Quarter
Mar 1
New
Mar 8
First Quarter
Mar 16
Full

Hourly Weather History & Observations

Time (MST) Temp. Windchill Dew Point Humidity Pressure Visibility Wind Dir Wind Speed Gust Speed Precip Events Conditions
12:15 AM 46.9 °F - 9.5 °F 22% 30.01 in 10.0 mi West 5.8 mph - N/A   Clear
12:35 AM 47.5 °F - 10.4 °F 22% 30.01 in 10.0 mi West 5.8 mph - N/A   Clear
12:55 AM 46.0 °F 43.9 °F 10.2 °F 23% 30.01 in 10.0 mi SW 4.6 mph - N/A   Clear
1:15 AM 45.3 °F 40.1 °F 10.9 °F 25% 30.00 in 10.0 mi WSW 10.4 mph - N/A   Clear
1:35 AM 49.3 °F - 9.5 °F 20% 29.99 in 10.0 mi WSW 9.2 mph - N/A   Clear
1:55 AM 49.1 °F - 10.4 °F 21% 29.97 in 10.0 mi West 4.6 mph - N/A   Clear
2:15 AM 49.3 °F - 10.4 °F 21% 29.97 in 10.0 mi West 9.2 mph - N/A   Clear
2:35 AM 49.5 °F - 10.2 °F 21% 29.97 in 10.0 mi WSW 10.4 mph - N/A   Clear
2:55 AM 45.3 °F 41.6 °F 11.1 °F 25% 29.97 in 10.0 mi West 6.9 mph - N/A   Clear
3:15 AM 43.9 °F 42.3 °F 11.3 °F 27% 29.97 in 10.0 mi NW 3.5 mph - N/A   Clear
3:35 AM 44.2 °F - 11.7 °F 27% 29.95 in 10.0 mi Calm Calm - N/A   Clear
3:55 AM 44.2 °F - 11.5 °F 26% 29.95 in 10.0 mi Calm Calm - N/A   Clear
4:15 AM 45.5 °F 43.2 °F 11.8 °F 26% 29.96 in 10.0 mi East 4.6 mph - N/A   Clear
4:35 AM 45.9 °F - 11.7 °F 25% 29.95 in 10.0 mi Calm Calm - N/A   Clear
4:55 AM 44.1 °F - 12.0 °F 27% 29.95 in 10.0 mi Calm Calm - N/A   Clear
5:15 AM 43.7 °F 42.1 °F 11.7 °F 27% 29.95 in 10.0 mi ESE 3.5 mph - N/A   Clear
5:35 AM 41.9 °F - 12.0 °F 30% 29.94 in 10.0 mi Calm Calm - N/A   Clear
5:55 AM 42.8 °F - 11.7 °F 28% 29.94 in 10.0 mi Calm Calm - N/A   Clear
6:15 AM 41.5 °F 35.9 °F 15.4 °F 35% 29.94 in 10.0 mi WSW 9.2 mph - N/A   Clear
6:35 AM 45.1 °F 42.8 °F 16.5 °F 32% 29.94 in 10.0 mi WSW 4.6 mph - N/A   Clear
6:55 AM 40.8 °F - 15.6 °F 36% 29.94 in 10.0 mi Calm Calm - N/A   Clear
7:15 AM 41.7 °F 38.0 °F 15.3 °F 34% 29.94 in 10.0 mi South 5.8 mph - N/A   Clear
7:35 AM 45.5 °F 41.8 °F 16.3 °F 31% 29.94 in 10.0 mi South 6.9 mph - N/A   Clear
7:55 AM 48.9 °F - 17.2 °F 28% 29.94 in 10.0 mi SSW 5.8 mph - N/A   Clear
8:15 AM 49.6 °F - 18.1 °F 29% 29.94 in 10.0 mi SSW 6.9 mph - N/A   Clear
8:35 AM 51.1 °F - 18.9 °F 28% 29.94 in 10.0 mi SSW 5.8 mph - N/A   Clear
8:55 AM 53.8 °F - 20.3 °F 27% 29.94 in 10.0 mi SW 8.1 mph - N/A   Clear
9:15 AM 57.2 °F - 21.0 °F 25% 29.94 in 10.0 mi WSW 11.5 mph - N/A   Clear
9:35 AM 59.0 °F - 20.3 °F 22% 29.94 in 10.0 mi WSW 16.1 mph - N/A   Clear
9:55 AM 61.2 °F - 21.7 °F 22% 29.94 in 10.0 mi WSW 15.0 mph - N/A   Clear
10:15 AM 60.8 °F - 21.6 °F 22% 29.94 in 10.0 mi West 12.7 mph - N/A   Clear
10:35 AM 63.0 °F - 22.5 °F 21% 29.93 in 10.0 mi WSW 15.0 mph - N/A   Clear
10:55 AM 62.4 °F - 22.1 °F 21% 29.92 in 10.0 mi SW 15.0 mph 19.6 mph N/A   Clear
11:15 AM 63.5 °F - 22.1 °F 21% 29.91 in 10.0 mi WSW 12.7 mph 18.4 mph N/A   Clear
11:35 AM 65.3 °F - 21.2 °F 19% 29.89 in 10.0 mi WSW 17.3 mph 25.3 mph N/A   Clear
11:55 AM 66.4 °F - 20.3 °F 17% 29.88 in 10.0 mi West 19.6 mph 25.3 mph N/A   Clear
12:15 PM 68.4 °F - 20.1 °F 16% 29.87 in 10.0 mi West 17.3 mph 26.5 mph N/A   Clear
12:35 PM 68.7 °F - 20.3 °F 16% 29.85 in 10.0 mi West 19.6 mph 24.2 mph N/A   Clear
12:55 PM 70.0 °F - 20.5 °F 15% 29.83 in 10.0 mi West 20.7 mph 25.3 mph N/A   Scattered Clouds
1:15 PM 70.3 °F - 19.8 °F 15% 29.81 in 10.0 mi West 19.6 mph 26.5 mph N/A   Clear
1:35 PM 70.3 °F - 19.4 °F 14% 29.80 in 10.0 mi West 26.5 mph 32.2 mph N/A   Clear
1:55 PM 70.3 °F - 19.0 °F 14% 29.78 in 10.0 mi West 25.3 mph 36.8 mph N/A   Clear
2:15 PM 70.9 °F - 18.5 °F 14% 29.77 in 10.0 mi West 25.3 mph 34.5 mph N/A   Clear
2:35 PM 70.7 °F - 18.5 °F 14% 29.76 in 10.0 mi West 26.5 mph 34.5 mph N/A   Clear
2:55 PM 70.9 °F - 18.0 °F 13% 29.74 in 10.0 mi West 23.0 mph 32.2 mph N/A   Clear
3:15 PM 70.9 °F - 18.3 °F 14% 29.74 in 10.0 mi West 21.9 mph 31.1 mph N/A   Clear
3:35 PM 70.0 °F - 18.1 °F 14% 29.73 in 10.0 mi West 23.0 mph 33.4 mph N/A   Scattered Clouds
3:55 PM 70.0 °F - 17.6 °F 14% 29.72 in 10.0 mi West 21.9 mph 33.4 mph N/A   Clear
4:15 PM 70.7 °F - 18.0 °F 13% 29.70 in 10.0 mi WSW 25.3 mph 33.4 mph N/A   Clear
4:35 PM 69.8 °F - 17.6 °F 14% 29.68 in 10.0 mi WSW 24.2 mph 29.9 mph N/A   Clear
4:55 PM 69.3 °F - 16.2 °F 13% 29.67 in 10.0 mi WSW 28.8 mph 41.4 mph N/A   Clear
5:15 PM 69.3 °F - 15.6 °F 13% 29.66 in 10.0 mi WSW 31.1 mph 40.3 mph N/A   Clear
5:35 PM 67.6 °F - 14.9 °F 13% 29.66 in 10.0 mi WSW 24.2 mph 38.0 mph N/A   Clear
5:55 PM 66.2 °F - 13.6 °F 13% 29.67 in 10.0 mi WSW 23.0 mph 40.3 mph N/A   Clear
6:15 PM 64.8 °F - 13.1 °F 13% 29.68 in 10.0 mi West 25.3 mph 38.0 mph N/A   Clear
6:35 PM 64.9 °F - 12.9 °F 13% 29.69 in 10.0 mi West 34.5 mph 48.3 mph N/A   Clear
6:55 PM 63.9 °F - 13.5 °F 14% 29.70 in 10.0 mi West 28.8 mph 42.6 mph N/A   Clear
7:15 PM 62.8 °F - 13.8 °F 15% 29.70 in 10.0 mi West 31.1 mph 36.8 mph N/A   Clear
7:35 PM 62.8 °F - 14.4 °F 15% 29.70 in 10.0 mi WSW 29.9 mph 41.4 mph N/A   Clear
7:55 PM 62.1 °F - 14.7 °F 16% 29.72 in 10.0 mi WSW 26.5 mph 40.3 mph N/A   Clear
8:15 PM 61.5 °F - 15.6 °F 17% 29.73 in 10.0 mi WSW 25.3 mph 36.8 mph N/A   Clear
8:35 PM 60.6 °F - 15.8 °F 17% 29.73 in 10.0 mi West 32.2 mph 40.3 mph N/A   Clear
8:55 PM 60.1 °F - 16.3 °F 18% 29.74 in 10.0 mi West 35.7 mph 40.3 mph N/A   Clear
9:35 PM 59.0 °F - 16.0 °F 19% 29.76 in 10.0 mi West 27.6 mph 40.3 mph N/A   Clear
9:55 PM 58.5 °F - 15.8 °F 19% 29.77 in 10.0 mi West 31.1 mph 48.3 mph N/A   Clear
10:15 PM 57.4 °F - 16.7 °F 20% 29.78 in 10.0 mi West 21.9 mph 36.8 mph N/A   Clear
10:35 PM 56.7 °F - 16.7 °F 21% 29.79 in 10.0 mi West 21.9 mph 35.7 mph N/A   Clear
10:55 PM 51.1 °F - 21.0 °F 31% 29.81 in 10.0 mi NNW 11.5 mph 19.6 mph N/A   Scattered Clouds
11:15 PM 48.4 °F - 21.2 °F 34% 29.82 in 10.0 mi NNW 18.4 mph 25.3 mph N/A   Scattered Clouds
11:35 PM 47.7 °F - 21.0 °F 35% 29.83 in 10.0 mi NNW 17.3 mph 25.3 mph N/A   Clear
11:55 PM 46.6 °F - 21.0 °F 36% 29.85 in 10.0 mi NNW 12.7 mph 20.7 mph N/A   Clear